Bunceton, MO (65237)

2:29 PM CDT on July 05, 2015 (GMT -0500)
APRSWXNET | | Change Station
CLOSE
Current Station
Personal Weather Station
Location: Boonville, MO
Elevation: 728 ft
Nearby Weather Stations
Active Advisory: Flood Warning

Elev 728 ft 38.94 °N, 92.82 °W | Updated 29 minutes ago

Partly Cloudy
Partly Cloudy
86 °F
Feels Like 94 °F
N
4
Wind Variable Wind from SE
Gusts 8.0 mph

Today
High -- | Low -- °F
--% Chance of Precip.
Yesterday
High -- | Low -- °F
Precip. -- in
5:51 AM 8:39 PM
Waning Gibbous, 82% visible
Pressure 30.00 in
Visibility 10.0 miles
Clouds Scattered Clouds 2900 ft
Heat Index 94 °F
Dew Point 74 °F
Humidity 68%
Rainfall in
Snow Depth Not available.
UV 9 out of 12
Pollen 4.10 out of 12
Air Quality Not available.
Flu Activity Not available.
METAR KVER 051915Z AUTO 14007KT 10SM SCT029 30/22 A3000 RMK AO2 T03000216

More Conditions Fewer Conditions

Pressure 30.00 in
Visibility 10.0 miles
Clouds Scattered Clouds 2900 ft
Heat Index 94 °F
Dew Point 74 °F
Humidity 68%
Rainfall in
Snow Depth Not available.
UV 9 out of 12
Pollen 4.10 out of 12
Air Quality Not available.
Flu Activity Not available.
METAR KVER 051915Z AUTO 14007KT 10SM SCT029 30/22 A3000 RMK AO2 T03000216

More Conditions Fewer Conditions

10-Day Weather Forecast

×

Almanac

Astronomy

Jul. 05, 2015 Rise Set
Actual Time
Civil Twilight
Nautical Twilight
Astronomical Twilight
Moon
Length of Visible Light
Length of Day
Tomorrow will be .
, % of the Moon is Illuminated

Today's Extremes

State Highs State Lows

Community

WunderPhotos

Upload Photos

1,835,354 photos uploaded!

WunderBlogs® & News

Nearby

Air Quality

  Air Quality AQ Index Pollutant
Not available.

Snow Depth

Station Depth Elevation

Earthquake Activity

City Distance Mag. Time & Date
Minimum magnitude displayed is 2.5.

Coastal Water Temperatures

Place Temperature

Stations

Nearby Weather Stations

Station Location Temp. Windchill Dew Point Humidity Wind Precip. Elev Updated Type
                   
Flood Warning
Statement as of 1:24 PM CDT on July 05, 2015

The Flood Warning continues for
the Blackwater river near Blue Lick.
* Until Tuesday evening.
* At 12:45 PM Sunday the stage was 29.6 feet.
* Flood stage is 24.0 feet.
* Moderate flooding is occurring and moderate flooding is forecast.
* Forecast... the river will continue to fall to below flood stage by
Monday evening.
* At 29.0 feet... livestock in pastures along the river may be
endangered. Extensive damage also occurs to cropland and pasture.
* At 24.0 feet... cropland and pastures along the river flood.

                       Latest
location fs stage day/time forecast

Blackwater river
Blue Lick 24 29.6 sun 01 PM 29.0 this evening


lat... Lon 3894 9342 3899 9348 3903 9297 3894 9295 3893 9323